Location: Oliveto
(43.3833°N, 11.7333°E)
Time: 20:28:04
(UTC+00:00)

Daily predictions for brighter satellites

Satellite Brightness Start Highest point End
(mag) Time Altitude Azimuth Time Altitude Azimuth Time Altitude Azimuth
Cosmos 1725 Rocket 4.1 16:11:00 10° N 16:17:16 61° E 16:23:30 10° SSE
Cosmos 2227 Rocket 3.6 16:14:22 10° N 16:18:07 18° NE 16:21:50 10° E
Cosmos 2297 Rocket 3.5 16:15:06 10° N 16:19:03 19° NE 16:22:59 10° E
Cosmos 2016 Rocket 4.1 16:17:31 10° N 16:23:56 85° E 16:30:19 10° S
Feng Yun 1-1 Rocket 4.3 16:18:26 10° SSE 16:24:05 69° ENE 16:29:36 10° N
Cosmos 1455 2.4 16:20:50 10° SSW 16:24:36 78° W 16:28:23 10° N
CORIOLIS 4.2 16:26:38 10° SSE 16:31:56 62° ENE 16:37:18 10° N
Cosmos 1125 Rocket 4.0 16:27:48 10° NNW 16:33:00 67° WSW 16:38:07 10° S
H-2A R/B 2.8 16:30:10 10° SSE 16:33:59 61° ENE 16:37:48 10° N
Cosmos 1437 2.6 16:33:39 10° N 16:36:42 61° ENE 16:39:45 10° SSE
Meteor 2-3 Rocket 3.8 16:31:37 10° N 16:37:23 59° ENE 16:43:03 10° SSE
Cosmos 1408 Rocket 3.9 16:33:34 10° NNW 16:37:58 72° W 16:42:23 10° S
TSX-5 3.8 16:35:35 10° SSW 16:39:13 67° ESE 16:43:49 10° NNE
Cosmos 1500 Rocket 3.6 16:37:41 10° N 16:42:01 57° E 16:46:18 10° SSE
ASTEX 1 3.9 16:37:25 10° N 16:42:23 65° W 16:47:20 10° SSW
OE (NEXTSAT) 4.3 16:40:40 10° WNW 16:44:11 87° NNE 16:47:29 11° ESE
Cosmos 1818 3.9 16:39:45 10° NW 16:45:12 71° WSW 16:50:34 10° SSE
Timation 2 Rocket 4.3 16:40:40 10° NNW 16:46:43 70° WSW 16:52:58 10° SSE
Cosmos 1943 Rocket 4.5 16:43:36 10° W 16:47:31 19° NW 16:51:28 10° N
COSMO-SKYMED 1 3.2 16:46:52 10° NNE 16:50:52 35° E 16:54:49 10° SSE
Genesis I 3.8 16:48:37 10° S 16:52:24 41° ESE 16:55:22 15° NE
YAOGAN 6 3.3 16:49:48 10° SE 16:52:52 29° ENE 16:55:56 10° N
Starlink Launch 2 Placeholder 4.5 16:52:48 10° WNW 16:54:58 27° SW 16:57:07 10° SSE
Cosmos 1607 4.5 16:50:08 10° NNW 16:55:52 37° NE 17:01:28 11° ESE
CZ-4 R/B 2.0 16:54:00 10° SE 16:57:49 35° ENE 17:01:36 10° N
Meteor 2-10 Rocket 4.1 16:54:31 10° SSW 16:59:26 58° WNW 17:04:24 10° N
Cosmos 1697 Rocket 4.2 16:56:14 10° SE 16:59:27 16° E 16:59:49 16° E
Sich 1 3.6 17:04:45 10° N 17:08:43 34° ENE 17:12:41 10° SE
Okean-O 2.9 17:07:35 10° S 17:12:00 72° WSW 17:16:27 10° NNW
ATLAS 5 CENTAUR R/B 2.8 17:08:02 10° NNW 17:13:24 41° NE 17:17:36 19° ESE
Cosmos 1869 3.2 17:12:53 10° S 17:16:48 61° E 17:20:42 10° NNE
Envisat 3.0 17:13:51 10° SSE 17:18:55 86° WSW 17:24:02 10° NNW
Cosmos 1939 Rocket 4.1 17:20:29 24° NE 17:20:29 24° NE 17:23:05 10° NNE
YAOGAN 1 2.7 17:16:32 10° SE 17:20:42 49° ENE 17:24:53 10° N
USA 215 3.6 17:18:28 22° E 17:22:28 47° NNE 17:28:40 10° NW
COBE Rocket 4.4 17:19:41 10° N 17:24:28 59° WNW 17:29:07 10° SSW
Cosmos 2084 3.5 17:20:27 10° NNW 17:24:41 55° NE 17:26:27 31° ESE
Cosmos 1238 Rocket 3.7 17:20:41 10° NNW 17:25:25 56° W 17:29:16 10° S
BREEZE-M DEB (TANK) 3.4 17:18:25 10° W 17:26:44 44° NNW 17:28:18 27° NE
NOAA 11 4.5 17:22:59 10° SE 17:28:03 42° ENE 17:33:08 10° N
USA 229 DEB 3.6 17:21:42 10° SSW 17:28:07 63° ESE 17:32:54 20° NE
USA 229 3.6 17:21:50 10° SSW 17:28:14 63° ESE 17:32:56 20° NE
NOSS 3-1 (A) 3.8 17:28:35 10° S 17:33:32 37° ESE 17:34:58 32° E
NOSS 3-1 (C) 3.2 17:30:38 10° SSW 17:36:00 62° ESE 17:39:14 27° NE
CSL-04 Debris 4.1 17:31:01 10° SSE 17:36:29 75° ENE 17:41:59 10° N
Cosmos 2221 4.1 17:32:41 10° SW 17:36:39 36° WNW 17:40:40 10° N
Cosmos 2219 3.2 17:31:54 10° NNW 17:37:33 85° WSW 17:43:10 10° SSE
SKYMED 2 3.8 17:34:43 10° N 17:39:03 71° WNW 17:43:22 10° SSW
FengYun 1-2 T 4.4 17:36:47 10° S 17:42:19 73° WSW 17:47:51 10° NNW
Cosmos 1656 3.5 17:41:24 10° SSW 17:46:55 68° ESE 17:49:34 31° NE
USA 116 4.0 17:43:40 12° NNE 17:47:43 89° WNW 17:52:37 10° SSW
H-2A R/B 4.3 17:52:52 11° NNE 17:52:52 11° NNE 17:53:04 10° NNE
Cosmos 1680 Rocket 4.5 17:45:44 10° SSE 17:48:47 29° SE 17:48:47 29° SE
SeaSat 1 4.5 17:47:22 10° SSW 17:51:36 29° WSW 17:55:51 10° NW
Cosmos 1464 Rocket 3.8 17:45:49 10° N 17:52:02 82° E 17:58:10 10° S
Cosmos 1891 Rocket 4.4 17:46:44 10° N 17:53:11 84° E 17:59:27 10° S
Cosmos 1805 Rocket 4.3 17:50:25 10° NNW 17:54:39 52° W 17:58:53 10° S
IRS-1A Rocket 4.4 17:54:36 47° E 17:54:58 48° ENE 18:00:23 10° N
Cosmos 1072 Rocket 4.5 17:53:07 10° N 17:59:14 81° W 18:05:23 10° S
CSL-04 Rocket 3.8 17:54:18 10° S 17:59:41 72° WSW 18:05:02 10° NNW
Cosmos 1980 Rocket 4.2 17:56:34 10° SSE 17:57:08 12° SSE 17:57:08 12° SSE
Ariane Rocket 3.0 18:02:08 58° NE 18:02:08 58° NE 18:06:49 10° N
Cosmos 2227 Rocket 2.1 17:57:15 10° NNW 18:02:57 87° WSW 18:06:30 24° SSE
Cosmos 2297 Rocket 2.2 17:58:06 10° NNW 18:03:47 80° WSW 18:08:06 18° SSE
Cosmos 1356 Rocket 4.3 18:02:06 10° SSW 18:06:04 47° WNW 18:09:21 15° N
Lacrosse 4 Rocket 3.2 18:02:57 10° S 18:04:25 21° S 18:04:25 21° S
Cosmos 2369 3.6 18:06:46 10° SSW 18:12:20 68° ESE 18:12:20 68° ESE
Cosmos 923 Rocket 3.8 18:08:07 10° SSW 18:13:11 77° SE 18:13:11 77° SE
Cosmos 1633 Rocket 3.9 18:22:49 10° NNW 18:26:17 47° NW 18:26:17 47° NW
Cosmos 2082 3.6 18:22:02 10° NNW 18:27:33 85° NW 18:27:33 85° NW
CZ-4 R/B 4.0 18:29:45 10° SW 18:32:54 21° W 18:36:03 10° NW
Cosmos 2263 Rocket 4.4 18:28:57 10° N 18:29:43 13° N 18:29:43 13° N
Cosmos 1697 Rocket 3.1 18:37:02 10° SSW 18:41:37 58° SW 18:41:37 58° SW
H-2A R/B 4.5 17:44:45 10° W 18:49:48 54° SSW 18:54:26 39° SSE
ATLAS 5 CENTAUR R/B 3.3 18:52:34 10° NW 18:58:15 45° WSW 18:59:13 42° SW
Tsikada Rocket 4.5 18:55:55 10° SSW 19:02:08 58° WNW 19:08:28 10° N
USA 215 3.5 19:05:49 63° WSW 19:05:49 63° WSW 19:11:51 10° NW
